Home   Weather   Phenix City   Past weeks
Flag for USA

Past Weather in Phenix City, Alabama, USA — Yesterday and Last 2 Weeks

Now
76 °F

Passing clouds.


Feels Like: 78 °F
Forecast: 80 / 60 °F
Wind: 5 mph from Southwest

Location: Columbus Metropolitan Airport

Current Time: Oct 21, 2019 at 2:20:37 pm

Latest Report: Oct 21, 2019 at 1:51 pm


Visibility: 10 mi

Pressure: 29.94 "Hg

Humidity: 69%

Dew Point: 65 °F

Location of Phenix CityLocation

Past Weather in Phenix City — Graph

°F

Phenix City Temperature Yesterday

Maximum temperature yesterday: 79 °F (at 5:51 pm)
Minimum temperature yesterday: 58 °F (at 12:35 am)
Average temperature yesterday: 65 °F

High & Low Weather Summary for the Past Weeks

 TemperatureHumidityPressure
High88 °F (Oct 8, 1:51 pm)97% (Oct 14, 7:28 am)30.18 "Hg (Oct 14, 7:28 am)
Low50 °F (Oct 17, 7:51 am)28% (Oct 17, 3:51 pm)29.64 "Hg (Oct 19, 4:30 pm)
Average70 °F72%29.97 "Hg
* Reported Oct 6 12:35 pm — Oct 21 12:51 pm, Phenix City. Weather by CustomWeather, © 2019

Note: Actual official high and low records may vary slightly from our data, if they occured in-between our weather recording intervals... More about our weather records

Advertising

Phenix City Weather History for the Previous 24 Hours

Scroll right to see more
 ConditionsComfort  
Time TempWeatherWind HumidityBarometerVisibility
12:51 pm
Mon, Oct 21
75 °FSunny.6 mph69%29.97 "Hg10 mi
11:51 am73 °FSunny.8 mph76%29.98 "Hg10 mi
10:51 am67 °FSunny.No wind87%29.99 "Hg10 mi
9:51 am65 °FSunny.3 mph91%29.97 "Hg10 mi
8:51 am62 °FSunny.5 mph90%29.96 "Hg10 mi
7:51 am59 °FSunny.No wind93%29.95 "Hg9 mi
6:51 am60 °FClear.No wind93%29.95 "Hg10 mi
5:51 am60 °FClear.5 mph93%29.93 "Hg10 mi
4:51 am60 °FClear.No wind93%29.93 "Hg10 mi
3:51 am60 °FClear.No wind96%29.93 "Hg10 mi
2:51 am60 °FClear.3 mph96%29.93 "Hg10 mi
1:51 am62 °FClear.No wind93%29.95 "Hg10 mi
12:51 am64 °FClear.No wind90%29.96 "Hg10 mi
11:51 pm
Sun, Oct 20
65 °FClear.No wind91%29.97 "Hg10 mi
10:51 pm65 °FClear.No wind91%29.97 "Hg7 mi
9:51 pm67 °FClear.No wind87%29.94 "Hg10 mi
8:51 pm69 °FClear.No wind84%29.93 "Hg10 mi
7:51 pm72 °FClear.No wind76%29.92 "Hg10 mi
6:51 pm76 °FSunny.5 mph64%29.91 "Hg10 mi
5:51 pm79 °FSunny.3 mph56%29.90 "Hg10 mi
4:51 pm78 °FSunny.No wind58%29.90 "Hg10 mi
3:51 pm77 °FPassing clouds.3 mph60%29.90 "Hg10 mi
2:51 pm77 °FPartly sunny.6 mph60%29.90 "Hg10 mi
2:21 pm77 °FPartly sunny.No wind58%29.92 "Hg10 mi
Weather by CustomWeather, © 2019

See weather overview